Time,TemperatureF,DewpointF,PressureIn,WindDirection,WindDirectionDegrees,WindSpeedMPH,WindSpeedGustMPH,Humidity,HourlyPrecipIn,Conditions,Clouds,dailyrainin,SoftwareType,DateUTC
2013-03-20 00:00:00,31.5,22.5,30.19,West,263,14.0,19.0,69,0.00,,CLR,0.00,VWS V13.01,2013-03-20 04:00:00,
2013-03-20 00:05:00,31.6,22.3,30.19,West,265,15.0,18.0,68,0.00,,CLR,0.00,VWS V13.01,2013-03-20 04:05:00,
2013-03-20 00:10:00,31.6,21.9,30.18,West,265,17.0,19.0,67,0.00,,CLR,0.00,VWS V13.01,2013-03-20 04:10:00,
2013-03-20 00:15:00,31.5,22.2,30.18,West,265,14.0,19.0,68,0.00,,CLR,0.00,VWS V13.01,2013-03-20 04:15:00,
2013-03-20 00:20:00,31.4,22.4,30.19,West,263,18.0,19.0,69,0.00,,CLR,0.00,VWS V13.01,2013-03-20 04:20:00,
2013-03-20 00:25:00,31.2,22.2,30.19,West,262,13.0,19.0,69,0.00,,CLR,0.00,VWS V13.01,2013-03-20 04:25:00,
2013-03-20 00:30:00,31.1,22.1,30.19,West,259,15.0,15.0,69,0.00,,CLR,0.00,VWS V13.01,2013-03-20 04:30:00,
2013-03-20 00:35:00,31.0,22.4,30.19,WSW,256,16.0,17.0,70,0.00,,CLR,0.00,VWS V13.01,2013-03-20 04:35:00,
2013-03-20 00:40:00,31.1,22.1,30.19,West,261,13.0,18.0,69,0.00,,CLR,0.00,VWS V13.01,2013-03-20 04:40:00,
2013-03-20 00:45:00,30.9,22.3,30.19,West,259,13.0,18.0,70,0.00,,CLR,0.00,VWS V13.01,2013-03-20 04:45:00,
2013-03-20 00:50:00,30.8,22.2,30.19,WSW,256,14.0,18.0,70,0.00,,CLR,0.00,VWS V13.01,2013-03-20 04:50:00,
2013-03-20 00:55:00,30.8,21.9,30.19,WSW,254,12.0,18.0,69,0.00,,CLR,0.00,VWS V13.01,2013-03-20 04:55:00,
2013-03-20 01:00:00,30.7,22.1,30.18,WSW,256,14.0,14.0,70,0.00,,CLR,0.00,VWS V13.01,2013-03-20 05:00:00,
2013-03-20 01:05:00,30.5,22.2,30.18,WSW,258,14.0,16.0,71,0.00,,CLR,0.00,VWS V13.01,2013-03-20 05:05:00,
2013-03-20 01:10:00,30.5,21.9,30.18,WSW,254,13.0,16.0,70,0.00,,CLR,0.00,VWS V13.01,2013-03-20 05:10:00,
2013-03-20 01:15:00,30.3,22.0,30.18,WSW,254,11.0,16.0,71,0.00,,CLR,0.00,VWS V13.01,2013-03-20 05:15:00,
2013-03-20 01:20:00,30.3,22.0,30.18,WSW,258,12.0,16.0,71,0.00,,CLR,0.00,VWS V13.01,2013-03-20 05:20:00,
2013-03-20 01:25:00,30.3,22.0,30.18,WSW,258,12.0,16.0,71,0.00,,CLR,0.00,VWS V13.01,2013-03-20 05:25:00,
2013-03-20 01:30:00,30.1,21.9,30.18,WSW,257,13.0,13.0,71,0.00,,CLR,0.00,VWS V13.01,2013-03-20 05:30:00,
2013-03-20 01:35:00,29.9,22.0,30.18,West,259,11.0,14.0,72,0.00,,CLR,0.00,VWS V13.01,2013-03-20 05:35:00,
2013-03-20 01:40:00,29.8,21.9,30.18,West,259,12.0,15.0,72,0.00,,CLR,0.00,VWS V13.01,2013-03-20 05:40:00,
2013-03-20 01:45:00,29.8,21.9,30.18,West,260,10.0,15.0,72,0.00,,CLR,0.00,VWS V13.01,2013-03-20 05:45:00,
2013-03-20 01:50:00,29.7,21.8,30.18,West,261,12.0,15.0,72,0.00,,CLR,0.00,VWS V13.01,2013-03-20 05:50:00,
2013-03-20 01:55:00,29.5,21.9,30.18,West,261,10.0,15.0,73,0.00,,CLR,0.00,VWS V13.01,2013-03-20 05:55:00,
2013-03-20 02:00:00,29.3,21.7,30.18,West,261,11.0,12.0,73,0.00,,CLR,0.00,VWS V13.01,2013-03-20 06:00:00,
2013-03-20 02:05:00,29.2,22.0,30.17,West,261,10.0,12.0,74,0.00,,CLR,0.00,VWS V13.01,2013-03-20 06:05:00,
2013-03-20 02:10:00,29.0,21.8,30.17,West,259,10.0,12.0,74,0.00,,CLR,0.00,VWS V13.01,2013-03-20 06:10:00,
2013-03-20 02:15:00,29.0,21.8,30.17,WSW,258,9.0,12.0,74,0.00,,CLR,0.00,VWS V13.01,2013-03-20 06:15:00,
2013-03-20 02:20:00,28.9,21.7,30.17,WSW,257,9.0,12.0,74,0.00,,CLR,0.00,VWS V13.01,2013-03-20 06:20:00,
2013-03-20 02:25:00,29.0,21.8,30.17,WSW,258,8.0,12.0,74,0.00,,CLR,0.00,VWS V13.01,2013-03-20 06:25:00,
2013-03-20 02:30:00,28.9,21.7,30.17,West,260,8.0,12.0,74,0.00,,CLR,0.00,VWS V13.01,2013-03-20 06:30:00,
2013-03-20 02:35:00,28.9,21.7,30.17,West,261,9.0,12.0,74,0.00,,CLR,0.00,VWS V13.01,2013-03-20 06:35:00,
2013-03-20 02:40:00,28.9,21.4,30.17,West,261,9.0,12.0,73,0.00,,CLR,0.00,VWS V13.01,2013-03-20 06:40:00,
2013-03-20 02:45:00,28.8,21.6,30.17,West,261,6.0,12.0,74,0.00,,CLR,0.00,VWS V13.01,2013-03-20 06:45:00,
2013-03-20 02:50:00,28.5,21.6,30.17,West,261,9.0,12.0,75,0.00,,CLR,0.00,VWS V13.01,2013-03-20 06:50:00,
2013-03-20 02:55:00,28.5,21.6,30.16,West,261,9.0,12.0,75,0.00,,CLR,0.00,VWS V13.01,2013-03-20 06:55:00,
2013-03-20 03:00:00,28.4,21.5,30.16,West,260,9.0,10.0,75,0.00,,CLR,0.00,VWS V13.01,2013-03-20 07:00:00,
2013-03-20 03:05:00,28.3,21.4,30.16,West,260,10.0,11.0,75,0.00,,CLR,0.00,VWS V13.01,2013-03-20 07:05:00,
2013-03-20 03:10:00,28.3,21.4,30.16,WSW,257,7.0,11.0,75,0.00,,CLR,0.00,VWS V13.01,2013-03-20 07:10:00,
2013-03-20 03:15:00,28.1,20.9,30.16,WSW,256,7.0,11.0,74,0.00,,CLR,0.00,VWS V13.01,2013-03-20 07:15:00,
2013-03-20 03:20:00,28.0,20.8,30.16,WSW,256,10.0,11.0,74,0.00,,CLR,0.00,VWS V13.01,2013-03-20 07:20:00,
2013-03-20 03:25:00,28.0,21.1,30.15,WSW,256,7.0,11.0,75,0.00,,CLR,0.00,VWS V13.01,2013-03-20 07:25:00,
2013-03-20 03:30:00,27.8,21.2,30.15,WSW,256,7.0,9.0,76,0.00,,CLR,0.00,VWS V13.01,2013-03-20 07:30:00,
2013-03-20 03:35:00,27.6,21.0,30.15,WSW,256,8.0,9.0,76,0.00,,CLR,0.00,VWS V13.01,2013-03-20 07:35:00,
2013-03-20 03:40:00,27.5,20.6,30.15,WSW,254,7.0,10.0,75,0.00,,CLR,0.00,VWS V13.01,2013-03-20 07:40:00,
2013-03-20 03:45:00,27.7,20.8,30.14,WSW,250,9.0,11.0,75,0.00,,CLR,0.00,VWS V13.01,2013-03-20 07:45:00,
2013-03-20 03:50:00,27.9,20.4,30.14,WSW,248,9.0,11.0,73,0.00,,CLR,0.00,VWS V13.01,2013-03-20 07:50:00,
2013-03-20 03:55:00,28.1,20.6,30.14,WSW,246,9.0,11.0,73,0.00,,CLR,0.00,VWS V13.01,2013-03-20 07:55:00,
2013-03-20 04:00:00,28.2,20.4,30.13,WSW,244,2.0,5.0,72,0.00,,CLR,0.00,VWS V13.01,2013-03-20 08:00:00,
2013-03-20 04:05:00,28.3,20.4,30.13,WSW,243,3.0,9.0,72,0.00,,CLR,0.00,VWS V13.01,2013-03-20 08:05:00,
2013-03-20 04:10:00,28.0,20.2,30.13,WSW,244,9.0,12.0,72,0.00,,CLR,0.00,VWS V13.01,2013-03-20 08:10:00,
2013-03-20 04:15:00,27.8,20.3,30.13,WSW,246,4.0,12.0,73,0.00,,CLR,0.00,VWS V13.01,2013-03-20 08:15:00,
2013-03-20 04:20:00,27.8,20.3,30.13,WSW,244,10.0,12.0,73,0.00,,CLR,0.00,VWS V13.01,2013-03-20 08:20:00,
2013-03-20 04:25:00,27.8,20.0,30.13,WSW,247,9.0,12.0,72,0.00,,CLR,0.00,VWS V13.01,2013-03-20 08:25:00,
2013-03-20 04:30:00,27.8,20.0,30.13,WSW,247,9.0,10.0,72,0.00,,CLR,0.00,VWS V13.01,2013-03-20 08:30:00,
2013-03-20 04:35:00,27.8,20.3,30.13,WSW,248,10.0,11.0,73,0.00,,CLR,0.00,VWS V13.01,2013-03-20 08:35:00,
2013-03-20 04:40:00,27.7,20.2,30.13,WSW,253,10.0,12.0,73,0.00,,CLR,0.00,VWS V13.01,2013-03-20 08:40:00,
2013-03-20 04:45:00,27.7,20.5,30.12,WSW,252,10.0,13.0,74,0.00,,CLR,0.00,VWS V13.01,2013-03-20 08:45:00,
2013-03-20 04:50:00,27.7,20.2,30.12,WSW,248,11.0,13.0,73,0.00,,CLR,0.00,VWS V13.01,2013-03-20 08:50:00,
2013-03-20 04:55:00,27.8,20.3,30.12,WSW,248,10.0,14.0,73,0.00,,CLR,0.00,VWS V13.01,2013-03-20 08:55:00,
2013-03-20 05:00:00,27.8,20.3,30.12,WSW,245,12.0,14.0,73,0.00,,CLR,0.00,VWS V13.01,2013-03-20 09:00:00,
2013-03-20 05:05:00,27.8,20.0,30.11,WSW,251,11.0,17.0,72,0.00,,CLR,0.00,VWS V13.01,2013-03-20 09:05:00,
2013-03-20 05:10:00,27.8,20.0,30.11,WSW,245,12.0,17.0,72,0.00,,CLR,0.00,VWS V13.01,2013-03-20 09:10:00,
2013-03-20 05:15:00,27.6,20.1,30.11,WSW,251,10.0,17.0,73,0.00,,CLR,0.00,VWS V13.01,2013-03-20 09:15:00,
2013-03-20 05:20:00,27.4,20.2,30.11,WSW,251,9.0,17.0,74,0.00,,CLR,0.00,VWS V13.01,2013-03-20 09:20:00,
2013-03-20 05:25:00,27.3,20.1,30.11,WSW,252,10.0,17.0,74,0.00,,CLR,0.00,VWS V13.01,2013-03-20 09:25:00,
2013-03-20 05:30:00,27.2,20.3,30.11,WSW,254,9.0,11.0,75,0.00,,CLR,0.00,VWS V13.01,2013-03-20 09:30:00,
2013-03-20 05:35:00,27.3,20.4,30.11,WSW,256,9.0,14.0,75,0.00,,CLR,0.00,VWS V13.01,2013-03-20 09:35:00,
2013-03-20 05:40:00,27.2,20.0,30.11,WSW,252,11.0,14.0,74,0.00,,CLR,0.00,VWS V13.01,2013-03-20 09:40:00,
2013-03-20 05:45:00,27.2,20.0,30.11,WSW,253,12.0,14.0,74,0.00,,CLR,0.00,VWS V13.01,2013-03-20 09:45:00,
2013-03-20 05:50:00,27.2,20.0,30.11,WSW,256,10.0,14.0,74,0.00,,CLR,0.00,VWS V13.01,2013-03-20 09:50:00,
2013-03-20 05:55:00,27.2,20.3,30.11,West,261,13.0,15.0,75,0.00,,CLR,0.00,VWS V13.01,2013-03-20 09:55:00,
2013-03-20 06:00:00,27.2,20.0,30.11,West,260,12.0,12.0,74,0.00,,CLR,0.00,VWS V13.01,2013-03-20 10:00:00,
2013-03-20 06:05:00,27.0,19.8,30.10,West,261,10.0,14.0,74,0.00,,CLR,0.00,VWS V13.01,2013-03-20 10:05:00,
2013-03-20 06:10:00,26.8,20.0,30.11,West,261,11.0,14.0,75,0.00,,CLR,0.00,VWS V13.01,2013-03-20 10:10:00,
2013-03-20 06:15:00,26.7,19.9,30.11,West,263,12.0,17.0,75,0.00,,CLR,0.00,VWS V13.01,2013-03-20 10:15:00,
2013-03-20 06:20:00,26.7,20.2,30.11,WSW,258,16.0,17.0,76,0.00,,CLR,0.00,VWS V13.01,2013-03-20 10:20:00,
2013-03-20 06:25:00,26.8,20.3,30.11,West,260,11.0,17.0,76,0.00,,CLR,0.00,VWS V13.01,2013-03-20 10:25:00,
2013-03-20 06:30:00,26.7,19.9,30.11,WSW,256,13.0,13.0,75,0.00,,CLR,0.00,VWS V13.01,2013-03-20 10:30:00,
2013-03-20 06:35:00,26.6,20.1,30.11,WSW,257,12.0,15.0,76,0.00,,CLR,0.00,VWS V13.01,2013-03-20 10:35:00,
2013-03-20 06:40:00,26.5,20.0,30.11,WSW,254,11.0,17.0,76,0.00,,CLR,0.00,VWS V13.01,2013-03-20 10:40:00,
2013-03-20 06:45:00,26.5,20.0,30.12,West,259,14.0,17.0,76,0.00,,CLR,0.00,VWS V13.01,2013-03-20 10:45:00,
2013-03-20 06:50:00,26.5,19.7,30.12,West,264,13.0,17.0,75,0.00,,CLR,0.00,VWS V13.01,2013-03-20 10:50:00,
2013-03-20 06:55:00,26.6,19.8,30.12,West,266,11.0,17.0,75,0.00,,CLR,0.00,VWS V13.01,2013-03-20 10:55:00,
2013-03-20 07:00:00,26.6,20.1,30.12,West,265,10.0,11.0,76,0.00,,CLR,0.00,VWS V13.01,2013-03-20 11:00:00,
2013-03-20 07:05:00,26.5,19.7,30.12,West,260,13.0,19.0,75,0.00,,CLR,0.00,VWS V13.01,2013-03-20 11:05:00,
2013-03-20 07:10:00,26.4,19.6,30.12,WSW,256,14.0,19.0,75,0.00,,CLR,0.00,VWS V13.01,2013-03-20 11:10:00,
2013-03-20 07:15:00,26.2,19.4,30.12,West,261,16.0,19.0,75,0.00,,CLR,0.00,VWS V13.01,2013-03-20 11:15:00,
2013-03-20 07:20:00,26.2,19.4,30.13,West,269,12.0,19.0,75,0.00,,CLR,0.00,VWS V13.01,2013-03-20 11:20:00,
2013-03-20 07:25:00,26.2,19.7,30.13,West,265,13.0,19.0,76,0.00,,CLR,0.00,VWS V13.01,2013-03-20 11:25:00,
2013-03-20 07:30:00,26.3,19.8,30.13,West,269,10.0,10.0,76,0.00,,CLR,0.00,VWS V13.01,2013-03-20 11:30:00,
2013-03-20 07:35:00,26.3,19.8,30.13,West,270,10.0,17.0,76,0.00,,CLR,0.00,VWS V13.01,2013-03-20 11:35:00,
2013-03-20 07:40:00,26.3,19.5,30.13,WSW,257,17.0,19.0,75,0.00,,CLR,0.00,VWS V13.01,2013-03-20 11:40:00,
2013-03-20 07:45:00,26.3,19.5,30.13,West,264,14.0,20.0,75,0.00,,CLR,0.00,VWS V13.01,2013-03-20 11:45:00,
2013-03-20 07:50:00,26.2,19.4,30.13,West,274,17.0,20.0,75,0.00,,CLR,0.00,VWS V13.01,2013-03-20 11:50:00,
2013-03-20 07:55:00,26.2,19.1,30.14,West,273,12.0,21.0,74,0.00,,CLR,0.00,VWS V13.01,2013-03-20 11:55:00,
2013-03-20 08:00:00,26.2,19.1,30.14,West,272,15.0,21.0,74,0.00,,CLR,0.00,VWS V13.01,2013-03-20 12:00:00,
2013-03-20 08:05:00,26.2,18.7,30.14,West,275,17.0,21.0,73,0.00,,CLR,0.00,VWS V13.01,2013-03-20 12:05:00,
2013-03-20 08:10:00,26.2,19.1,30.14,WNW,282,11.0,21.0,74,0.00,,CLR,0.00,VWS V13.01,2013-03-20 12:10:00,
2013-03-20 08:15:00,26.1,19.3,30.14,West,269,16.0,21.0,75,0.00,,CLR,0.00,VWS V13.01,2013-03-20 12:15:00,
2013-03-20 08:20:00,26.0,18.9,30.14,West,271,15.0,21.0,74,0.00,,CLR,0.00,VWS V13.01,2013-03-20 12:20:00,
2013-03-20 08:25:00,25.9,18.8,30.14,WNW,283,14.0,21.0,74,0.00,,CLR,0.00,VWS V13.01,2013-03-20 12:25:00,
2013-03-20 08:30:00,25.9,18.1,30.14,West,266,18.0,25.0,72,0.00,,CLR,0.00,VWS V13.01,2013-03-20 12:30:00,
2013-03-20 08:35:00,25.8,18.0,30.14,WNW,289,17.0,20.0,72,0.00,,CLR,0.00,VWS V13.01,2013-03-20 12:35:00,
2013-03-20 08:40:00,25.9,18.5,30.14,WNW,292,13.0,20.0,73,0.00,,CLR,0.00,VWS V13.01,2013-03-20 12:40:00,
2013-03-20 08:45:00,26.1,18.6,30.14,West,281,16.0,20.0,73,0.00,,CLR,0.00,VWS V13.01,2013-03-20 12:45:00,
2013-03-20 08:50:00,26.2,18.4,30.14,WNW,283,16.0,20.0,72,0.00,,CLR,0.00,VWS V13.01,2013-03-20 12:50:00,
2013-03-20 08:55:00,26.2,18.7,30.14,WNW,297,16.0,24.0,73,0.00,,CLR,0.00,VWS V13.01,2013-03-20 12:55:00,
2013-03-20 09:00:00,26.3,18.5,30.14,West,270,20.0,24.0,72,0.00,,CLR,0.00,VWS V13.01,2013-03-20 13:00:00,
2013-03-20 09:05:00,26.3,18.5,30.15,West,281,24.0,26.0,72,0.00,,CLR,0.00,VWS V13.01,2013-03-20 13:05:00,
2013-03-20 09:10:00,26.1,17.7,30.15,West,280,22.0,26.0,70,0.00,,CLR,0.00,VWS V13.01,2013-03-20 13:10:00,
2013-03-20 09:15:00,26.2,17.8,30.15,West,271,19.0,26.0,70,0.00,,CLR,0.00,VWS V13.01,2013-03-20 13:15:00,
2013-03-20 09:20:00,26.3,17.9,30.15,WNW,287,21.0,26.0,70,0.00,,CLR,0.00,VWS V13.01,2013-03-20 13:20:00,
2013-03-20 09:25:00,26.3,18.2,30.15,West,272,20.0,26.0,71,0.00,,CLR,0.00,VWS V13.01,2013-03-20 13:25:00,
2013-03-20 09:30:00,26.2,18.1,30.15,West,277,18.0,26.0,71,0.00,,CLR,0.00,VWS V13.01,2013-03-20 13:30:00,
2013-03-20 09:35:00,26.1,18.0,30.15,West,280,21.0,26.0,71,0.00,,CLR,0.00,VWS V13.01,2013-03-20 13:35:00,
2013-03-20 09:40:00,26.0,18.2,30.15,West,280,18.0,26.0,72,0.00,,CLR,0.00,VWS V13.01,2013-03-20 13:40:00,
2013-03-20 09:45:00,26.2,18.4,30.15,WNW,294,23.0,26.0,72,0.00,,CLR,0.00,VWS V13.01,2013-03-20 13:45:00,
2013-03-20 09:50:00,26.3,18.5,30.15,WNW,284,15.0,26.0,72,0.00,,CLR,0.00,VWS V13.01,2013-03-20 13:50:00,
2013-03-20 09:55:00,26.3,18.2,30.15,WNW,302,17.0,26.0,71,0.00,,CLR,0.00,VWS V13.01,2013-03-20 13:55:00,
2013-03-20 10:00:00,26.0,17.9,30.15,NW,312,19.0,26.0,71,0.00,,CLR,0.00,VWS V13.01,2013-03-20 14:00:00,
2013-03-20 10:05:00,26.0,17.9,30.15,WNW,297,15.0,24.0,71,0.00,,CLR,0.00,VWS V13.01,2013-03-20 14:05:00,
2013-03-20 10:10:00,26.5,18.0,30.15,NW,306,12.0,24.0,70,0.00,,CLR,0.00,VWS V13.01,2013-03-20 14:10:00,
2013-03-20 10:15:00,26.2,17.1,30.15,WNW,290,16.0,26.0,68,0.00,,CLR,0.00,VWS V13.01,2013-03-20 14:15:00,
2013-03-20 10:20:00,26.2,17.4,30.15,NW,304,18.0,26.0,69,0.00,,CLR,0.00,VWS V13.01,2013-03-20 14:20:00,
2013-03-20 10:25:00,25.9,16.8,30.15,WNW,286,16.0,26.0,68,0.00,,CLR,0.00,VWS V13.01,2013-03-20 14:25:00,
2013-03-20 10:30:00,26.2,17.1,30.15,West,273,18.0,18.0,68,0.00,,CLR,0.00,VWS V13.01,2013-03-20 14:30:00,
2013-03-20 10:35:00,26.2,16.8,30.15,West,277,18.0,23.0,67,0.00,,CLR,0.00,VWS V13.01,2013-03-20 14:35:00,
2013-03-20 10:40:00,26.5,17.0,30.15,West,271,14.0,23.0,67,0.00,,CLR,0.00,VWS V13.01,2013-03-20 14:40:00,
2013-03-20 10:45:00,26.6,16.8,30.15,WNW,294,15.0,23.0,66,0.00,,CLR,0.00,VWS V13.01,2013-03-20 14:45:00,
2013-03-20 10:50:00,26.8,16.6,30.15,West,277,24.0,27.0,65,0.00,,CLR,0.00,VWS V13.01,2013-03-20 14:50:00,
2013-03-20 10:55:00,26.5,16.3,30.15,West,277,18.0,27.0,65,0.00,,CLR,0.00,VWS V13.01,2013-03-20 14:55:00,
2013-03-20 11:00:00,26.3,15.4,30.15,West,274,19.0,19.0,63,0.00,,CLR,0.00,VWS V13.01,2013-03-20 15:00:00,
2013-03-20 11:05:00,26.5,16.7,30.15,West,270,19.0,26.0,66,0.00,,CLR,0.00,VWS V13.01,2013-03-20 15:05:00,
2013-03-20 11:10:00,26.8,17.3,30.15,WNW,286,23.0,26.0,67,0.00,,CLR,0.00,VWS V13.01,2013-03-20 15:10:00,
2013-03-20 11:15:00,26.6,16.1,30.15,West,279,20.0,26.0,64,0.00,,CLR,0.00,VWS V13.01,2013-03-20 15:15:00,
2013-03-20 11:20:00,26.7,16.2,30.15,WNW,282,16.0,26.0,64,0.00,,CLR,0.00,VWS V13.01,2013-03-20 15:20:00,
2013-03-20 11:25:00,27.1,17.3,30.15,West,275,24.0,26.0,66,0.00,,CLR,0.00,VWS V13.01,2013-03-20 15:25:00,
2013-03-20 11:30:00,26.5,16.7,30.15,West,271,15.0,15.0,66,0.00,,CLR,0.00,VWS V13.01,2013-03-20 15:30:00,
2013-03-20 11:35:00,26.3,16.1,30.15,West,279,18.0,25.0,65,0.00,,CLR,0.00,VWS V13.01,2013-03-20 15:35:00,
2013-03-20 11:40:00,26.9,17.8,30.15,WNW,288,19.0,25.0,68,0.00,,CLR,0.00,VWS V13.01,2013-03-20 15:40:00,
2013-03-20 11:45:00,27.0,17.5,30.15,WSW,252,21.0,25.0,67,0.00,,CLR,0.00,VWS V13.01,2013-03-20 15:45:00,
2013-03-20 11:50:00,27.2,17.4,30.15,West,273,19.0,25.0,66,0.00,,CLR,0.00,VWS V13.01,2013-03-20 15:50:00,
2013-03-20 11:55:00,26.7,17.2,30.16,West,265,19.0,25.0,67,0.00,,CLR,0.00,VWS V13.01,2013-03-20 15:55:00,
2013-03-20 12:00:00,26.6,16.1,30.16,West,264,20.0,20.0,64,0.00,,CLR,0.00,VWS V13.01,2013-03-20 16:00:00,
2013-03-20 12:05:00,26.5,16.0,30.16,West,266,18.0,25.0,64,0.00,,CLR,0.00,VWS V13.01,2013-03-20 16:05:00,
2013-03-20 12:10:00,26.3,15.4,30.16,West,279,20.0,25.0,63,0.00,,CLR,0.00,VWS V13.01,2013-03-20 16:10:00,
2013-03-20 12:15:00,26.0,16.2,30.16,West,270,19.0,28.0,66,0.00,,CLR,0.00,VWS V13.01,2013-03-20 16:15:00,
2013-03-20 12:20:00,27.0,16.1,30.15,WSW,257,23.0,28.0,63,0.00,,CLR,0.00,VWS V13.01,2013-03-20 16:20:00,
2013-03-20 12:25:00,27.0,17.5,30.15,WNW,284,18.0,28.0,67,0.00,,CLR,0.00,VWS V13.01,2013-03-20 16:25:00,
2013-03-20 12:30:00,26.3,15.1,30.16,West,273,21.0,21.0,62,0.00,,CLR,0.00,VWS V13.01,2013-03-20 16:30:00,
2013-03-20 12:35:00,26.9,16.7,30.15,WNW,286,18.0,23.0,65,0.00,,CLR,0.00,VWS V13.01,2013-03-20 16:35:00,
2013-03-20 12:40:00,27.2,16.3,30.15,WNW,282,15.0,25.0,63,0.00,,CLR,0.00,VWS V13.01,2013-03-20 16:40:00,
2013-03-20 12:45:00,27.5,17.3,30.15,WNW,289,20.0,25.0,65,0.00,,CLR,0.00,VWS V13.01,2013-03-20 16:45:00,
2013-03-20 12:50:00,26.8,15.9,30.15,West,263,22.0,25.0,63,0.00,,BKN039,0.00,VWS V13.01,2013-03-20 16:50:00,
2013-03-20 12:55:00,26.7,16.2,30.15,West,269,17.0,25.0,64,0.00,,BKN039,0.00,VWS V13.01,2013-03-20 16:55:00,
2013-03-20 13:00:00,27.3,17.5,30.15,West,274,19.0,25.0,66,0.00,,BKN039,0.00,VWS V13.01,2013-03-20 17:00:00,
2013-03-20 13:05:00,26.6,16.1,30.15,West,272,17.0,26.0,64,0.00,,BKN039,0.00,VWS V13.01,2013-03-20 17:05:00,
2013-03-20 13:10:00,27.2,17.7,30.15,WSW,257,21.0,26.0,67,0.00,,BKN039,0.00,VWS V13.01,2013-03-20 17:10:00,
2013-03-20 13:15:00,27.4,15.7,30.15,West,278,21.0,26.0,61,0.00,,BKN039,0.00,VWS V13.01,2013-03-20 17:15:00,
2013-03-20 13:20:00,26.8,17.0,30.15,West,263,20.0,26.0,66,0.00,,BKN039,0.00,VWS V13.01,2013-03-20 17:20:00,
2013-03-20 13:25:00,27.6,17.7,30.15,West,268,22.0,26.0,66,0.00,,BKN039,0.00,VWS V13.01,2013-03-20 17:25:00,
2013-03-20 13:30:00,27.3,15.3,30.14,West,279,23.0,27.0,60,0.00,,BKN039,0.00,VWS V13.01,2013-03-20 17:30:00,
2013-03-20 13:35:00,27.4,16.8,30.14,WSW,248,17.0,27.0,64,0.00,,BKN039,0.00,VWS V13.01,2013-03-20 17:35:00,
2013-03-20 13:40:00,27.5,16.2,30.14,West,260,25.0,27.0,62,0.00,,BKN039,0.00,VWS V13.01,2013-03-20 17:40:00,
2013-03-20 13:45:00,27.8,18.3,30.14,West,259,15.0,28.0,67,0.00,,BKN039,0.00,VWS V13.01,2013-03-20 17:45:00,
2013-03-20 13:50:00,27.7,17.8,30.14,West,270,19.0,28.0,66,0.00,,BKN039,0.00,VWS V13.01,2013-03-20 17:50:00,
2013-03-20 13:55:00,28.0,17.0,30.14,West,259,22.0,28.0,63,0.00,,BKN039,0.00,VWS V13.01,2013-03-20 17:55:00,
2013-03-20 14:00:00,27.5,16.6,30.14,West,271,24.0,29.0,63,0.00,,BKN039,0.00,VWS V13.01,2013-03-20 18:00:00,
2013-03-20 14:05:00,27.8,16.9,30.14,West,265,19.0,27.0,63,0.00,,BKN039,0.00,VWS V13.01,2013-03-20 18:05:00,
2013-03-20 14:10:00,27.5,16.9,30.14,West,275,25.0,29.0,64,0.00,,BKN039,0.00,VWS V13.01,2013-03-20 18:10:00,
2013-03-20 14:15:00,28.0,16.3,30.14,WSW,250,18.0,29.0,61,0.00,,BKN039,0.00,VWS V13.01,2013-03-20 18:15:00,
2013-03-20 14:20:00,27.1,15.4,30.14,West,273,18.0,29.0,61,0.00,,BKN039,0.00,VWS V13.01,2013-03-20 18:20:00,
2013-03-20 14:25:00,27.8,16.9,30.13,West,265,23.0,29.0,63,0.00,,BKN039,0.00,VWS V13.01,2013-03-20 18:25:00,
2013-03-20 14:30:00,28.5,16.8,30.13,West,270,22.0,29.0,61,0.00,,BKN039,0.00,VWS V13.01,2013-03-20 18:30:00,
2013-03-20 14:35:00,28.1,17.1,30.13,West,271,18.0,27.0,63,0.00,,BKN039,0.00,VWS V13.01,2013-03-20 18:35:00,
2013-03-20 14:40:00,27.8,16.1,30.13,West,265,21.0,27.0,61,0.00,,BKN039,0.00,VWS V13.01,2013-03-20 18:40:00,
2013-03-20 14:45:00,27.4,16.1,30.13,WSW,256,16.0,27.0,62,0.00,,BKN039,0.00,VWS V13.01,2013-03-20 18:45:00,
2013-03-20 14:50:00,28.2,18.0,30.13,West,271,22.0,28.0,65,0.00,,BKN039,0.00,VWS V13.01,2013-03-20 18:50:00,
2013-03-20 14:55:00,28.1,15.6,30.12,West,273,25.0,30.0,59,0.00,,BKN039,0.00,VWS V13.01,2013-03-20 18:55:00,
2013-03-20 15:00:00,27.6,15.6,30.12,WSW,249,19.0,30.0,60,0.00,,BKN039,0.00,VWS V13.01,2013-03-20 19:00:00,
2013-03-20 15:05:00,28.2,16.5,30.12,West,273,20.0,29.0,61,0.00,,BKN039,0.00,VWS V13.01,2013-03-20 19:05:00,
2013-03-20 15:10:00,28.8,18.9,30.12,West,272,22.0,34.0,66,0.00,,BKN039,0.00,VWS V13.01,2013-03-20 19:10:00,
2013-03-20 15:15:00,28.8,15.5,30.12,WNW,284,15.0,34.0,57,0.00,,BKN039,0.00,VWS V13.01,2013-03-20 19:15:00,
2013-03-20 15:20:00,28.8,16.3,30.11,WSW,256,22.0,34.0,59,0.00,,BKN039,0.00,VWS V13.01,2013-03-20 19:20:00,
2013-03-20 15:25:00,27.9,15.1,30.11,West,272,22.0,34.0,58,0.00,,BKN039,0.00,VWS V13.01,2013-03-20 19:25:00,
2013-03-20 15:30:00,27.4,14.2,30.11,West,269,24.0,34.0,57,0.00,,BKN039,0.00,VWS V13.01,2013-03-20 19:30:00,
2013-03-20 15:35:00,27.3,14.9,30.11,WNW,287,21.0,28.0,59,0.00,,BKN039,0.00,VWS V13.01,2013-03-20 19:35:00,
2013-03-20 15:40:00,27.9,16.2,30.11,West,259,20.0,28.0,61,0.00,,BKN039,0.00,VWS V13.01,2013-03-20 19:40:00,
2013-03-20 15:45:00,28.3,15.0,30.11,West,273,21.0,31.0,57,0.00,,BKN039,0.00,VWS V13.01,2013-03-20 19:45:00,
2013-03-20 15:50:00,27.8,14.6,30.11,West,264,27.0,31.0,57,0.00,,BKN039,0.00,VWS V13.01,2013-03-20 19:50:00,
2013-03-20 15:55:00,27.7,14.5,30.11,West,271,20.0,31.0,57,0.00,,BKN039,0.00,VWS V13.01,2013-03-20 19:55:00,
2013-03-20 16:00:00,27.6,14.8,30.11,West,269,22.0,31.0,58,0.00,,BKN039,0.00,VWS V13.01,2013-03-20 20:00:00,
2013-03-20 16:05:00,27.3,14.9,30.12,West,276,21.0,29.0,59,0.00,,BKN039,0.00,VWS V13.01,2013-03-20 20:05:00,
2013-03-20 16:10:00,27.3,14.1,30.11,West,263,25.0,29.0,57,0.00,,BKN039,0.00,VWS V13.01,2013-03-20 20:10:00,
2013-03-20 16:15:00,27.1,14.3,30.11,West,273,24.0,29.0,58,0.00,,BKN039,0.00,VWS V13.01,2013-03-20 20:15:00,
2013-03-20 16:20:00,27.0,13.8,30.12,West,277,17.0,29.0,57,0.00,,BKN039,0.00,VWS V13.01,2013-03-20 20:20:00,
2013-03-20 16:25:00,26.7,13.9,30.12,NW,306,19.0,29.0,58,0.00,,BKN039,0.00,VWS V13.01,2013-03-20 20:25:00,
2013-03-20 16:30:00,26.6,13.8,30.11,West,269,18.0,29.0,58,0.00,,BKN039,0.00,VWS V13.01,2013-03-20 20:30:00,
2013-03-20 16:35:00,26.8,14.0,30.12,WNW,290,24.0,27.0,58,0.00,,BKN039,0.00,VWS V13.01,2013-03-20 20:35:00,
2013-03-20 16:40:00,26.6,13.0,30.12,West,269,22.0,29.0,56,0.00,,BKN039,0.00,VWS V13.01,2013-03-20 20:40:00,
2013-03-20 16:45:00,26.6,13.0,30.11,WNW,299,20.0,29.0,56,0.00,,BKN039,0.00,VWS V13.01,2013-03-20 20:45:00,
2013-03-20 16:50:00,27.2,13.6,30.11,WNW,284,18.0,29.0,56,0.00,,BKN039,0.00,VWS V13.01,2013-03-20 20:50:00,
2013-03-20 16:55:00,27.0,14.6,30.12,West,279,24.0,29.0,59,0.00,,BKN039,0.00,VWS V13.01,2013-03-20 20:55:00,
2013-03-20 17:00:00,26.7,13.5,30.11,West,268,15.0,29.0,57,0.00,,BKN039,0.00,VWS V13.01,2013-03-20 21:00:00,
2013-03-20 17:05:00,26.7,13.1,30.11,West,261,26.0,30.0,56,0.00,,BKN039,0.00,VWS V13.01,2013-03-20 21:05:00,
2013-03-20 17:10:00,26.4,12.4,30.11,West,272,20.0,30.0,55,0.00,,BKN039,0.00,VWS V13.01,2013-03-20 21:10:00,
2013-03-20 17:15:00,26.5,12.5,30.11,West,266,20.0,30.0,55,0.00,,BKN039,0.00,VWS V13.01,2013-03-20 21:15:00,
2013-03-20 17:20:00,26.8,13.6,30.11,WNW,283,19.0,30.0,57,0.00,,BKN039,0.00,VWS V13.01,2013-03-20 21:20:00,
2013-03-20 17:25:00,26.6,12.2,30.11,West,278,20.0,30.0,54,0.00,,BKN039,0.00,VWS V13.01,2013-03-20 21:25:00,
2013-03-20 17:30:00,26.5,12.9,30.11,West,264,20.0,30.0,56,0.00,,BKN039,0.00,VWS V13.01,2013-03-20 21:30:00,
2013-03-20 17:35:00,26.5,12.1,30.11,WNW,294,19.0,28.0,54,0.00,,BKN039,0.00,VWS V13.01,2013-03-20 21:35:00,
2013-03-20 17:40:00,26.6,13.4,30.11,West,279,23.0,28.0,57,0.00,,BKN039,0.00,VWS V13.01,2013-03-20 21:40:00,
2013-03-20 17:45:00,27.0,12.2,30.11,West,269,19.0,31.0,53,0.00,,BKN039,0.00,VWS V13.01,2013-03-20 21:45:00,
2013-03-20 17:50:00,27.4,14.2,30.11,WSW,254,27.0,31.0,57,0.00,,BKN039,0.00,VWS V13.01,2013-03-20 21:50:00,
2013-03-20 17:55:00,26.9,12.9,30.11,West,263,25.0,33.0,55,0.00,,BKN039,0.00,VWS V13.01,2013-03-20 21:55:00,
2013-03-20 18:00:00,26.4,12.8,30.11,West,274,18.0,33.0,56,0.00,,BKN039,0.00,VWS V13.01,2013-03-20 22:00:00,
2013-03-20 18:05:00,26.2,11.4,30.11,West,271,19.0,25.0,53,0.00,,BKN039,0.00,VWS V13.01,2013-03-20 22:05:00,
2013-03-20 18:10:00,26.6,12.2,30.11,West,266,26.0,27.0,54,0.00,,BKN039,0.00,VWS V13.01,2013-03-20 22:10:00,
2013-03-20 18:15:00,26.4,12.0,30.12,West,279,25.0,28.0,54,0.00,,BKN039,0.00,VWS V13.01,2013-03-20 22:15:00,
2013-03-20 18:20:00,26.8,12.4,30.12,WNW,297,17.0,28.0,54,0.00,,BKN039,0.00,VWS V13.01,2013-03-20 22:20:00,
2013-03-20 18:25:00,26.6,12.6,30.12,West,274,21.0,28.0,55,0.00,,BKN039,0.00,VWS V13.01,2013-03-20 22:25:00,
2013-03-20 18:30:00,26.3,12.3,30.12,WNW,284,24.0,28.0,55,0.00,,BKN039,0.00,VWS V13.01,2013-03-20 22:30:00,
2013-03-20 18:35:00,26.2,13.1,30.12,West,279,22.0,28.0,57,0.00,,BKN039,0.00,VWS V13.01,2013-03-20 22:35:00,
2013-03-20 18:40:00,26.0,11.6,30.12,WNW,286,26.0,29.0,54,0.00,,BKN039,0.00,VWS V13.01,2013-03-20 22:40:00,
2013-03-20 18:45:00,26.1,11.3,30.12,WNW,298,24.0,29.0,53,0.00,,BKN039,0.00,VWS V13.01,2013-03-20 22:45:00,
2013-03-20 18:50:00,26.0,11.2,30.12,West,262,25.0,29.0,53,0.00,,BKN039,0.00,VWS V13.01,2013-03-20 22:50:00,
2013-03-20 18:55:00,26.0,12.1,30.12,WNW,287,22.0,29.0,55,0.00,,BKN039,0.00,VWS V13.01,2013-03-20 22:55:00,
2013-03-20 19:00:00,26.2,13.1,30.12,WSW,246,20.0,29.0,57,0.00,,BKN039,0.00,VWS V13.01,2013-03-20 23:00:00,
2013-03-20 19:05:00,26.2,11.8,30.12,WNW,283,12.0,25.0,54,0.00,,BKN039,0.00,VWS V13.01,2013-03-20 23:05:00,
2013-03-20 19:10:00,26.0,11.6,30.12,WNW,290,18.0,25.0,54,0.00,,BKN039,0.00,VWS V13.01,2013-03-20 23:10:00,
2013-03-20 19:15:00,26.0,11.6,30.12,West,278,15.0,25.0,54,0.00,,BKN039,0.00,VWS V13.01,2013-03-20 23:15:00,
2013-03-20 19:20:00,25.9,12.4,30.12,West,281,18.0,29.0,56,0.00,,BKN039,0.00,VWS V13.01,2013-03-20 23:20:00,
2013-03-20 19:25:00,25.7,11.8,30.12,West,281,18.0,29.0,55,0.00,,BKN039,0.00,VWS V13.01,2013-03-20 23:25:00,
2013-03-20 19:30:00,25.7,13.0,30.12,West,270,13.0,29.0,58,0.00,,BKN039,0.00,VWS V13.01,2013-03-20 23:30:00,
2013-03-20 19:35:00,25.6,12.1,30.12,NW,306,21.0,24.0,56,0.00,,BKN039,0.00,VWS V13.01,2013-03-20 23:35:00,
2013-03-20 19:40:00,25.7,11.8,30.12,West,275,25.0,25.0,55,0.00,,BKN039,0.00,VWS V13.01,2013-03-20 23:40:00,
2013-03-20 19:45:00,25.7,10.9,30.12,WNW,288,16.0,30.0,53,0.00,,BKN039,0.00,VWS V13.01,2013-03-20 23:45:00,
2013-03-20 19:50:00,25.5,11.6,30.12,WNW,284,21.0,30.0,55,0.00,,BKN039,0.00,VWS V13.01,2013-03-20 23:50:00,
2013-03-20 19:55:00,25.6,12.1,30.13,WNW,289,19.0,30.0,56,0.00,,BKN039,0.00,VWS V13.01,2013-03-20 23:55:00,
2013-03-20 20:00:00,25.5,12.0,30.13,WNW,287,19.0,30.0,56,0.00,,BKN039,0.00,VWS V13.01,2013-03-21 00:00:00,
2013-03-20 20:05:00,25.4,12.3,30.13,WNW,295,18.0,22.0,57,0.00,,BKN039,0.00,VWS V13.01,2013-03-21 00:05:00,
2013-03-20 20:10:00,25.3,11.4,30.13,West,266,23.0,27.0,55,0.00,,BKN039,0.00,VWS V13.01,2013-03-21 00:10:00,
2013-03-20 20:15:00,25.3,12.2,30.13,West,270,17.0,27.0,57,0.00,,BKN039,0.00,VWS V13.01,2013-03-21 00:15:00,
2013-03-20 20:20:00,25.2,12.1,30.13,WNW,288,17.0,27.0,57,0.00,,BKN039,0.00,VWS V13.01,2013-03-21 00:20:00,
2013-03-20 20:25:00,25.1,12.4,30.13,WNW,292,13.0,27.0,58,0.00,,BKN039,0.00,VWS V13.01,2013-03-21 00:25:00,
2013-03-20 20:30:00,24.9,12.6,30.13,WNW,288,15.0,27.0,59,0.00,,BKN039,0.00,VWS V13.01,2013-03-21 00:30:00,
2013-03-20 20:35:00,24.8,12.9,30.13,WNW,291,17.0,19.0,60,0.00,,BKN039,0.00,VWS V13.01,2013-03-21 00:35:00,
2013-03-20 20:40:00,24.7,12.8,30.13,WNW,295,15.0,19.0,60,0.00,,BKN039,0.00,VWS V13.01,2013-03-21 00:40:00,
2013-03-20 20:45:00,24.7,12.8,30.13,WNW,282,17.0,19.0,60,0.00,,BKN039,0.00,VWS V13.01,2013-03-21 00:45:00,
2013-03-20 20:50:00,24.7,12.4,30.13,WNW,294,20.0,24.0,59,0.00,,BKN039,0.00,VWS V13.01,2013-03-21 00:50:00,
2013-03-20 20:55:00,24.5,12.6,30.13,NW,304,15.0,24.0,60,0.00,,BKN039,0.00,VWS V13.01,2013-03-21 00:55:00,
2013-03-20 21:00:00,24.2,12.7,30.13,WNW,285,17.0,24.0,61,0.00,,BKN039,0.00,VWS V13.01,2013-03-21 01:00:00,
2013-03-20 21:05:00,24.2,12.7,30.13,WNW,294,14.0,24.0,61,0.00,,BKN039,0.00,VWS V13.01,2013-03-21 01:05:00,
2013-03-20 21:10:00,24.0,13.6,30.13,WNW,299,16.0,24.0,64,0.00,,BKN039,0.00,VWS V13.01,2013-03-21 01:10:00,
2013-03-20 21:15:00,24.0,13.2,30.13,WNW,301,17.0,24.0,63,0.00,,BKN039,0.00,VWS V13.01,2013-03-21 01:15:00,
2013-03-20 21:20:00,23.9,12.8,30.13,WNW,300,15.0,24.0,62,0.00,,BKN039,0.00,VWS V13.01,2013-03-21 01:20:00,
2013-03-20 21:25:00,23.9,13.1,30.13,WNW,295,10.0,24.0,63,0.00,,BKN039,0.00,VWS V13.01,2013-03-21 01:25:00,
2013-03-20 21:30:00,23.9,13.1,30.13,NW,305,16.0,24.0,63,0.00,,BKN039,0.00,VWS V13.01,2013-03-21 01:30:00,
2013-03-20 21:35:00,24.0,13.2,30.13,WNW,300,18.0,20.0,63,0.00,,BKN039,0.00,VWS V13.01,2013-03-21 01:35:00,
2013-03-20 21:40:00,24.0,13.2,30.13,WNW,300,20.0,21.0,63,0.00,,BKN039,0.00,VWS V13.01,2013-03-21 01:40:00,
2013-03-20 21:45:00,23.9,13.1,30.13,WNW,292,19.0,24.0,63,0.00,,BKN039,0.00,VWS V13.01,2013-03-21 01:45:00,
2013-03-20 21:50:00,23.8,13.1,30.13,WNW,292,16.0,24.0,63,0.00,,BKN039,0.00,VWS V13.01,2013-03-21 01:50:00,
2013-03-20 21:55:00,23.8,13.4,30.13,WNW,300,12.0,24.0,64,0.00,,BKN039,0.00,VWS V13.01,2013-03-21 01:55:00,
2013-03-20 22:00:00,23.8,13.4,30.13,West,278,22.0,24.0,64,0.00,,BKN039,0.00,VWS V13.01,2013-03-21 02:00:00,
2013-03-20 22:05:00,23.6,13.6,30.13,NW,309,14.0,23.0,65,0.00,,BKN039,0.00,VWS V13.01,2013-03-21 02:05:00,
2013-03-20 22:10:00,23.6,13.6,30.13,WNW,292,19.0,23.0,65,0.00,,BKN039,0.00,VWS V13.01,2013-03-21 02:10:00,
2013-03-20 22:15:00,23.6,13.9,30.12,West,281,13.0,23.0,66,0.00,,BKN039,0.00,VWS V13.01,2013-03-21 02:15:00,
2013-03-20 22:20:00,23.5,13.5,30.12,WNW,288,17.0,23.0,65,0.00,,BKN039,0.00,VWS V13.01,2013-03-21 02:20:00,
2013-03-20 22:25:00,23.5,13.5,30.12,West,281,13.0,23.0,65,0.00,,BKN039,0.00,VWS V13.01,2013-03-21 02:25:00,
2013-03-20 22:30:00,23.5,13.1,30.12,West,279,17.0,23.0,64,0.00,,BKN039,0.00,VWS V13.01,2013-03-21 02:30:00,
2013-03-20 22:35:00,23.5,13.8,30.12,WNW,284,18.0,21.0,66,0.00,,BKN039,0.00,VWS V13.01,2013-03-21 02:35:00,
2013-03-20 22:40:00,23.5,14.2,30.12,West,277,12.0,21.0,67,0.00,,BKN039,0.00,VWS V13.01,2013-03-21 02:40:00,
2013-03-20 22:45:00,23.5,13.5,30.13,WNW,296,12.0,21.0,65,0.00,,BKN039,0.00,VWS V13.01,2013-03-21 02:45:00,
2013-03-20 22:50:00,23.4,13.7,30.12,WNW,291,5.0,21.0,66,0.00,,BKN039,0.00,VWS V13.01,2013-03-21 02:50:00,
2013-03-20 22:55:00,23.3,13.3,30.12,NW,304,16.0,21.0,65,0.00,,BKN039,0.00,VWS V13.01,2013-03-21 02:55:00,
2013-03-20 23:00:00,23.1,12.8,30.12,WNW,294,16.0,21.0,64,0.00,,BKN039,0.00,VWS V13.01,2013-03-21 03:00:00,
2013-03-20 23:05:00,23.1,13.1,30.12,WNW,301,15.0,18.0,65,0.00,,BKN039,0.00,VWS V13.01,2013-03-21 03:05:00,
2013-03-20 23:10:00,22.9,13.6,30.12,WNW,292,18.0,21.0,67,0.00,,BKN039,0.00,VWS V13.01,2013-03-21 03:10:00,
2013-03-20 23:15:00,22.7,13.7,30.12,WNW,289,18.0,21.0,68,0.00,,BKN039,0.00,VWS V13.01,2013-03-21 03:15:00,
2013-03-20 23:20:00,22.7,14.4,30.12,West,279,13.0,21.0,70,0.00,,BKN039,0.00,VWS V13.01,2013-03-21 03:20:00,
2013-03-20 23:25:00,22.8,13.8,30.12,WNW,286,16.0,21.0,68,0.00,,BKN039,0.00,VWS V13.01,2013-03-21 03:25:00,
2013-03-20 23:30:00,22.8,13.8,30.12,WNW,302,18.0,21.0,68,0.00,,BKN039,0.00,VWS V13.01,2013-03-21 03:30:00,
2013-03-20 23:35:00,22.9,13.9,30.12,WNW,290,14.0,20.0,68,0.00,,BKN039,0.00,VWS V13.01,2013-03-21 03:35:00,
2013-03-20 23:40:00,22.8,14.2,30.12,WNW,294,13.0,20.0,69,0.00,,BKN039,0.00,VWS V13.01,2013-03-21 03:40:00,
2013-03-20 23:45:00,22.5,14.5,30.12,WNW,301,10.0,20.0,71,0.00,,BKN039,0.00,VWS V13.01,2013-03-21 03:45:00,
2013-03-20 23:50:00,22.5,14.2,30.12,WNW,300,11.0,20.0,70,0.00,,BKN039,0.00,VWS V13.01,2013-03-21 03:50:00,
2013-03-20 23:55:00,22.5,12.9,30.12,WNW,303,17.0,20.0,66,0.00,,BKN039,0.00,VWS V13.01,2013-03-21 03:55:00,